Regional Weather Roundup
Issued by NWS

Home | Current Version | Previous Version | Graphics & Text | Print | Product List | Glossary On
Versions: 1 2 3 4 5 6 7 8 9 10 11 12 13 14 15 16 17 18 19 20 21 22 23 24 25 26 27 28 29 30 31 32 33 34 35 36 37 38 39 40 41 42 43 44 45 46 47 48 49 50
214
ASUS44 KLIX 311301
RWRLA
LOUISIANA WEATHER ROUNDUP
NATIONAL WEATHER SERVICE NEW ORLEANS LA
800 AM CDT THU JUL 31 2014

NOTE: "FAIR" INDICATES FEW OR NO CLOUDS BELOW 12,000 FEET WITH NO
      SIGNIFICANT WEATHER AND/OR OBSTRUCTIONS TO VISIBILITY.
      SKY/WX - SKY CONDITION AND SIGNIFICANT WEATHER.
      TMP - AIR TEMPERATURE.    DP   - DEWPOINT TEMPERATURE.
      RH  - RELATIVE HUMIDITY.  PRES - PRESSURE.
      HX  - HEAT INDEX.         WCI  - WIND CHILL INDEX.

*  THESE STATIONS ARE NOT NWS OR FAA STATIONS AND ARE NOT UNDER
   NWS QUALITY CONTROL.

LAZ040-048-061>063-065-066-069-311400-
SOUTHEAST LOUISIANA

CITY           SKY/WX    TMP DP  RH WIND       PRES   REMARKS
N.O. AUDUBON     N/A     81  67  61 MISG        N/A
N.O. INTL ARPT CLOUDY    79  68  69 E3        30.03R
N.O. LAKEFRONT MOSUNNY   77  67  71 E10       30.03R
N.O. DOWNTOWN* FAIR      79  64  61 NE7       30.03S
SLIDELL        PTSUNNY   71  64  78 NE5       30.04R
BATON ROUGE    CLOUDY    71  64  78 NE5       30.04R
BOOTHVILLE     MOSUNNY   80  69  69 CALM      30.03R
BELLE CHASSE   PTSUNNY   77  70  79 NE3       30.02R
BOGALUSA*      CLOUDY    70  64  79 CALM      30.07R
GALLIANO*      NOT AVBL
NEW ROADS*     FAIR      71  65  82 CALM      30.05R
GONZALES*      PTSUNNY   71  69  92 CALM      30.04R
HAMMOND*       CLOUDY    72  61  68 CALM      30.06R
HOUMA*         MOSUNNY   77  68  73 CALM      30.02R
PORT FOURCHON* PTSUNNY   82  64  54 E5        30.03R

$$

LAZ041-044-053-054-311400-
SOUTHWEST LOUISIANA

CITY           SKY/WX    TMP DP  RH WIND       PRES   REMARKS
LAKE CHARLES   PTSUNNY   75  68  78 E5        30.00R
LAFAYETTE      CLOUDY    72  67  84 CALM      30.03R
PATTERSON      PTSUNNY   75  72  88 NE5       30.06R
SALT POINT       N/A     78  71  79 CALM      30.01R
NEW IBERIA     CLOUDY    75  67  76 E6        30.03R
CHENAULT AIRPK NOT AVBL

$$

LAZ027-028-311400-
CENTRAL LOUISIANA

CITY           SKY/WX    TMP DP  RH WIND       PRES   REMARKS
FORT POLK      PTSUNNY   73  64  73 E3        30.04R
ALEXANDRIA INT CLOUDY    73  66  78 E5        30.03S
ALEXANDRIA     CLOUDY    73  67  81 CALM      30.05R

$$

LAZ001-002-311400-
NORTHWEST LOUISIANA

CITY           SKY/WX    TMP DP  RH WIND       PRES   REMARKS
SHREVEPORT     LGT RAIN  70  67  90 E6        30.03S
BARKSDALE AFB  LGT RAIN  69  65  88 E7        30.04S
DTN SHREVEPORT LGT RAIN  69  65  86 E3        30.04S

$$

LAZ014-016-311400-
NORTHEAST LOUISIANA

CITY           SKY/WX    TMP DP  RH WIND       PRES   REMARKS
MONROE         CLOUDY    71  66  84 NE7       30.07S
TALLULAH       LGT RAIN  71  66  84 E3        30.08S

$$




USA.gov is the U.S. government's official web portal to all federal, state and local government web resources and services.